Meteor 2-19 Rocket - Orbit

View from above orbital plane
View from above orbital plane
View from above satellite
View from above satellite

Ground track
Ground track

The orbit data is extracted from the following two-line orbital elements,

1 20671U 90057B   13138.84754132  .00000027  00000-0  10443-4 0  6618
2 20671 082.5457 116.7197 0015562 178.2685 230.3272 13.84555689156833
Epoch (UTC): 18 May 2013 20:20:27
Eccentricity: 0.0015562
inclination: 82.5457°
perigee height: 936 km
apogee height: 959 km
right ascension of ascending node: 116.7197°
argument of perigee: 178.2685°
revolutions per day: 13.84555689
mean anomaly at epoch: 230.3272°
orbit number at epoch: 15683

The dashed part of the orbit path shows where the satellite is in the earth's shadow,  

Developed and maintained by Chris Peat, Heavens-Above GmbH. Please read the updated FAQ before sending e-mail. Imprint. DLR